Content
SEND FEEDBACK

Daily
Averages
Monthly
Summary
United States of America

GLENVIEW, ILLINOIS


Home > North America > United States > Illinois
Elevation: 653 feet     Latitude: 42 05N     Longitude: 087 50W

WEATHER
 
SELECT A DAY
Number of Records: 197,905;   Date Range: 7/8/95 - 10/23/14
 
SHARE

PRINT THIS DATA

[ ← Previous Day ]
WEATHER ALMANAC - MARCH 28, 2013
[ Next Day → ]
[ °C ]   °F
Weather ElementAverageHighLow
Temperature38.1 °F48.9 °F (1:52 pm)23 °F (4:52 am)
Dewpoint20.3 °F23 °F (7:52 am)18 °F (10:52 am)
Humidity52.3 %85 % (4:52 am)31 % (1:52 pm)
Barometer30.34 in30.37 in (7:52 am)30.31 in (3:52 pm)
Wind Speed3.4 mph9.2 mph (3:52 pm)
Weather ElementAverage
Visibility10 mi
Wind DirectionENE (73.3 °)

Weather ElementTotal
Precipitation---
Heating Degree Days29.1 (Base 65)
Averaged from 21 records on March 28, 2013
WEATHER CONDITIONS BREAKOUT
WIND DIRECTION BREAKOUT
WEATHER BY HOUR - MARCH 28, 2013
[ °C ]   °F
Local TimeTemperatureDewpointHumidityBarometerVisibilityWind DirectionWind SpeedGust SpeedPrecipitationEventsConditions
1:52 AM26.1 °F19.9 °F78 %30.35 in10.0 miCalmClear
2:52 AM25.0 °F19.9 °F81 %30.35 in10.0 miCalmClear
4:52 AM23.0 °F19.0 °F85 %30.35 in10.0 miCalmClear
5:52 AM24.1 °F19.0 °F81 %30.35 in10.0 miCalmClear
7:52 AM30.9 °F23.0 °F72 %30.37 in10.0 miCalmClear
8:52 AM37.0 °F21.0 °F52 %30.37 in10.0 miNW (310°)5.8 mphClear
9:52 AM42.1 °F21.0 °F43 %30.37 in10.0 miNW (310°)8.1 mphClear
10:52 AM44.1 °F18.0 °F35 %30.37 in10.0 miVariable3.5 mphClear
11:52 AM46.0 °F18.0 °F33 %30.36 in10.0 miWNW (290°)6.9 mphClear
12:52 PM48.0 °F19.0 °F32 %30.36 in10.0 miNorth (350°)8.1 mphClear
1:52 PM48.9 °F19.0 °F31 %30.34 in10.0 miVariable3.5 mphClear
2:52 PM48.9 °F19.0 °F31 %30.32 in10.0 miVariable6.9 mphClear
3:52 PM46.0 °F21.9 °F39 %30.31 in10.0 miENE (60°)9.2 mphClear
4:52 PM46.0 °F21.9 °F39 %30.31 in10.0 miENE (60°)8.1 mphClear
5:52 PM44.1 °F21.0 °F40 %30.32 in10.0 miENE (70°)6.9 mphClear
6:52 PM42.1 °F19.9 °F41 %30.32 in10.0 miEast (90°)4.6 mphClear
7:52 PM39.9 °F19.9 °F45 %30.33 in10.0 miCalmClear
8:52 PM37.0 °F19.9 °F50 %30.34 in10.0 miCalmClear
9:52 PM33.1 °F21.9 °F64 %30.35 in10.0 miCalmClear
10:52 PM34.0 °F21.9 °F61 %30.35 in10.0 miCalmClear
11:52 PM33.1 °F23.0 °F66 %30.34 in10.0 miCalmOvercast
Hourly data recorded from KPWK, located miles away from Glenview, Illinois







STORIES FROM OUR PARTNERS